When you browse on this site, cookies collect data to enhance your experience and personalize the content and advertising you see.
Visit our Privacy Policy to learn more. By continuing to use the site, you agree to this use of cookies and data.
  • In Schweiz
  • Länderverzeichnis
  • Für 7 Tage
  • Wassertemperatur
  • Wetterkarte
  • Widgets
  • user-avatar
    Anmelden

    Stündliche Wetter Tuson

    Heute, 6 Juni, Samstag

    Zeit Temperatur Niederschläge Wind Luftdruck Luftfeuchtigkeit
    00:00 +27°C° 0 mm 2 m/S 693 mmHg 26%
    01:00 +26°C° 0 mm 3 m/S 692 mmHg 28%
    02:00 +25°C° 0 mm 3 m/S 692 mmHg 30%
    03:00 +24°C° 0 mm 3 m/S 692 mmHg 31%
    04:00 +23°C° 0 mm 2 m/S 693 mmHg 33%
    05:00 +23°C° 0 mm 2 m/S 693 mmHg 34%
    06:00 +23°C° 0 mm 2 m/S 694 mmHg 32%
    07:00 +24°C° 0 mm 2 m/S 694 mmHg 29%
    08:00 +25°C° 0 mm 1 m/S 695 mmHg 27%
    09:00 +27°C° 0 mm 2 m/S 695 mmHg 23%
    10:00 +29°C° 0 mm 3 m/S 695 mmHg 18%
    11:00 +31°C° 0 mm 3 m/S 695 mmHg 14%
    12:00 +33°C° 0 mm 4 m/S 695 mmHg 12%
    13:00 +34°C° 0 mm 4 m/S 694 mmHg 10%
    14:00 +36°C° 0 mm 5 m/S 694 mmHg 8%
    15:00 +36°C° 0 mm 5 m/S 694 mmHg 9%
    16:00 +36°C° 0 mm 5 m/S 693 mmHg 9%
    17:00 +36°C° 0 mm 5 m/S 693 mmHg 9%
    18:00 +35°C° 0 mm 5 m/S 693 mmHg 11%
    19:00 +33°C° 0 mm 5 m/S 693 mmHg 13%
    20:00 +30°C° 0 mm 4 m/S 693 mmHg 15%
    21:00 +29°C° 0 mm 4 m/S 693 mmHg 19%
    22:00 +28°C° 0 mm 3 m/S 693 mmHg 23%
    23:00 +27°C° 0 mm 2 m/S 693 mmHg 28%

    Morgen, 7 Juni, Sonntag

    Zeit Temperatur Niederschläge Wind Luftdruck Luftfeuchtigkeit
    00:00 +26°C° 0 mm 2 m/S 693 mmHg 30%
    01:00 +25°C° 0 mm 1 m/S 693 mmHg 33%
    02:00 +25°C° 0 mm 1 m/S 692 mmHg 36%
    03:00 +24°C° 0 mm 1 m/S 692 mmHg 37%
    04:00 +24°C° 0 mm 1 m/S 692 mmHg 39%
    05:00 +23°C° 0 mm 1 m/S 692 mmHg 40%
    06:00 +25°C° 0 mm 1 m/S 692 mmHg 36%
    07:00 +26°C° 0 mm 1 m/S 693 mmHg 31%
    08:00 +28°C° 0 mm 1 m/S 693 mmHg 27%
    09:00 +29°C° 0 mm 2 m/S 694 mmHg 24%
    10:00 +32°C° 0 mm 4 m/S 694 mmHg 21%
    11:00 +34°C° 0 mm 5 m/S 694 mmHg 17%
    12:00 +35°C° 0 mm 6 m/S 694 mmHg 16%
    13:00 +36°C° 0 mm 7 m/S 693 mmHg 15%
    14:00 +38°C° 0 mm 8 m/S 693 mmHg 14%
    15:00 +38°C° 0 mm 8 m/S 693 mmHg 15%
    16:00 +38°C° 0 mm 8 m/S 693 mmHg 15%
    17:00 +37°C° 0 mm 9 m/S 692 mmHg 15%
    18:00 +35°C° 0 mm 8 m/S 692 mmHg 18%
    19:00 +33°C° 0 mm 7 m/S 692 mmHg 20%
    20:00 +32°C° 0 mm 5 m/S 692 mmHg 23%
    21:00 +29°C° 0 mm 4 m/S 692 mmHg 24%
    22:00 +28°C° 0 mm 3 m/S 693 mmHg 26%
    23:00 +27°C° 0 mm 2 m/S 693 mmHg 28%

    übermorgen, 8 Juni, Montag

    Zeit Temperatur Niederschläge Wind Luftdruck Luftfeuchtigkeit
    00:00 +26°C° 0 mm 2 m/S 693 mmHg 30%
    01:00 +25°C° 0 mm 2 m/S 693 mmHg 31%
    02:00 +25°C° 0 mm 2 m/S 692 mmHg 33%
    03:00 +24°C° 0 mm 2 m/S 692 mmHg 34%
    04:00 +23°C° 0 mm 2 m/S 692 mmHg 34%
    05:00 +23°C° 0 mm 2 m/S 692 mmHg 34%
    06:00 +24°C° 0 mm 2 m/S 693 mmHg 31%
    07:00 +26°C° 0 mm 2 m/S 694 mmHg 28%
    08:00 +27°C° 0 mm 2 m/S 695 mmHg 25%
    09:00 +29°C° 0 mm 3 m/S 695 mmHg 22%
    10:00 +30°C° 0 mm 4 m/S 695 mmHg 19%
    11:00 +32°C° 0 mm 4 m/S 695 mmHg 16%
    12:00 +33°C° 0 mm 5 m/S 695 mmHg 15%
    13:00 +35°C° 0 mm 5 m/S 695 mmHg 14%
    14:00 +36°C° 0 mm 6 m/S 695 mmHg 13%
    15:00 +36°C° 0 mm 6 m/S 695 mmHg 13%
    16:00 +36°C° 0 mm 7 m/S 694 mmHg 13%
    17:00 +37°C° 0 mm 8 m/S 694 mmHg 13%
    18:00 +34°C° 0 mm 7 m/S 694 mmHg 13%
    19:00 +32°C° 0 mm 6 m/S 694 mmHg 12%
    20:00 +29°C° 0 mm 5 m/S 694 mmHg 11%
    21:00 +28°C° 0 mm 4 m/S 695 mmHg 11%
    22:00 +27°C° 0 mm 3 m/S 695 mmHg 10%
    23:00 +25°C° 0 mm 2 m/S 695 mmHg 10%

    9 Juni, Dienstag

    Zeit Temperatur Niederschläge Wind Luftdruck Luftfeuchtigkeit
    00:00 +25°C° 0 mm 2 m/S 695 mmHg 10%
    01:00 +24°C° 0 mm 1 m/S 695 mmHg 10%
    02:00 +21°C° 0 mm 0 m/S 695 mmHg 11%
    03:00 +23°C° 0 mm 1 m/S 695 mmHg 11%
    04:00 +22°C° 0 mm 1 m/S 695 mmHg 10%
    05:00 +21°C° 0 mm 2 m/S 695 mmHg 10%
    06:00 +24°C° 0 mm 2 m/S 696 mmHg 9%
    07:00 +26°C° 0 mm 2 m/S 697 mmHg 8%
    08:00 +28°C° 0 mm 2 m/S 697 mmHg 8%
    09:00 +29°C° 0 mm 2 m/S 697 mmHg 8%
    10:00 +31°C° 0 mm 2 m/S 697 mmHg 9%
    11:00 +32°C° 0 mm 2 m/S 698 mmHg 9%
    12:00 +34°C° 0 mm 2 m/S 697 mmHg 9%
    13:00 +35°C° 0 mm 3 m/S 697 mmHg 8%
    14:00 +36°C° 0 mm 4 m/S 697 mmHg 7%
    15:00 +37°C° 0 mm 4 m/S 696 mmHg 7%
    16:00 +37°C° 0 mm 4 m/S 696 mmHg 6%
    17:00 +37°C° 0 mm 5 m/S 696 mmHg 5%
    18:00 +35°C° 0 mm 4 m/S 696 mmHg 6%
    19:00 +33°C° 0 mm 3 m/S 696 mmHg 6%
    20:00 +30°C° 0 mm 3 m/S 696 mmHg 6%
    21:00 +29°C° 0 mm 3 m/S 696 mmHg 7%
    22:00 +28°C° 0 mm 2 m/S 696 mmHg 7%
    23:00 +27°C° 0 mm 2 m/S 697 mmHg 8%

    10 Juni, Mittwoch

    Zeit Temperatur Niederschläge Wind Luftdruck Luftfeuchtigkeit
    00:00 +26°C° 0 mm 1 m/S 696 mmHg 9%
    01:00 +25°C° 0 mm 1 m/S 696 mmHg 9%
    02:00 +23°C° 0 mm 0 m/S 696 mmHg 10%
    03:00 +22°C° 0 mm 0 m/S 696 mmHg 10%
    04:00 +24°C° 0 mm 1 m/S 696 mmHg 10%
    05:00 +24°C° 0 mm 1 m/S 696 mmHg 10%
    06:00 +26°C° 0 mm 1 m/S 697 mmHg 8%
    07:00 +29°C° 0 mm 1 m/S 697 mmHg 7%
    08:00 +31°C° 0 mm 1 m/S 698 mmHg 6%
    09:00 +33°C° 0 mm 1 m/S 698 mmHg 6%
    10:00 +35°C° 0 mm 1 m/S 698 mmHg 7%
    11:00 +36°C° 0 mm 1 m/S 698 mmHg 7%
    12:00 +38°C° 0 mm 2 m/S 698 mmHg 8%
    13:00 +39°C° 0 mm 2 m/S 697 mmHg 8%
    14:00 +40°C° 0 mm 3 m/S 697 mmHg 8%
    15:00 +42°C° 0 mm 3 m/S 696 mmHg 8%
    16:00 +42°C° 0 mm 3 m/S 696 mmHg 8%
    17:00 +42°C° 0 mm 4 m/S 696 mmHg 8%
    18:00 +40°C° 0 mm 4 m/S 696 mmHg 8%
    19:00 +37°C° 0 mm 4 m/S 695 mmHg 9%
    20:00 +35°C° 0 mm 4 m/S 695 mmHg 9%
    21:00 +34°C° 0 mm 3 m/S 696 mmHg 10%
    22:00 +31°C° 0 mm 2 m/S 696 mmHg 11%
    23:00 +30°C° 0 mm 2 m/S 696 mmHg 13%

    11 Juni, Donnerstag

    Zeit Temperatur Niederschläge Wind Luftdruck Luftfeuchtigkeit
    00:00 +29°C° 0 mm 1 m/S 696 mmHg 14%
    01:00 +29°C° 0 mm 1 m/S 696 mmHg 14%
    02:00 +28°C° 0 mm 1 m/S 695 mmHg 15%
    03:00 +27°C° 0 mm 1 m/S 695 mmHg 16%
    04:00 +26°C° 0 mm 1 m/S 695 mmHg 17%
    05:00 +24°C° 0 mm 0 m/S 695 mmHg 17%
    06:00 +26°C° 0 mm 0 m/S 696 mmHg 15%
    07:00 +29°C° 0 mm 0 m/S 697 mmHg 12%
    08:00 +31°C° 0 mm 0 m/S 697 mmHg 10%
    09:00 +35°C° 0 mm 1 m/S 697 mmHg 9%
    10:00 +37°C° 0 mm 1 m/S 697 mmHg 9%
    11:00 +39°C° 0 mm 1 m/S 697 mmHg 8%
    12:00 +40°C° 0 mm 2 m/S 697 mmHg 8%
    13:00 +41°C° 0 mm 2 m/S 697 mmHg 8%
    14:00 +43°C° 0 mm 3 m/S 696 mmHg 8%
    15:00 +43°C° 0 mm 4 m/S 696 mmHg 7%
    16:00 +45°C° 0 mm 5 m/S 695 mmHg 6%
    17:00 +45°C° 0 mm 6 m/S 695 mmHg 5%
    18:00 +42°C° 0 mm 6 m/S 695 mmHg 6%
    19:00 +40°C° 0 mm 5 m/S 695 mmHg 6%
    20:00 +37°C° 0 mm 4 m/S 695 mmHg 7%
    21:00 +35°C° 0 mm 3 m/S 695 mmHg 8%
    22:00 +32°C° 0 mm 2 m/S 695 mmHg 10%
    23:00 +31°C° 0 mm 1 m/S 695 mmHg 11%
    Mehr zeigen